Regional Weather Roundup
Issued by NWS

Home | Current Version | Previous Version | Text Only | Print | Product List | Glossary Off
Versions: 1 2 3 4 5 6 7 8 9 10 11 12 13 14 15 16 17 18 19 20 21 22 23 24 25 26 27 28 29 30 31 32 33 34 35 36 37 38 39 40 41 42 43 44 45 46 47 48 49 50

000
ASUS44 KFWD 261215
RWRTX
NORTH TEXAS HOURLY WEATHER ROUNDUP
NATIONAL WEATHER SERVICE FORT WORTH TX
700 AM CDT SUN MAR 26 2017

NOTE: "FAIR" INDICATES FEW OR NO CLOUDS BELOW 12,000 FEET WITH NO
SIGNIFICANT WEATHER AND/OR OBSTRUCTIONS TO VISIBILITY.

TXZ118-119-261300-
DALLAS/FORT WORTH METROPLEX

CITY           SKY/WX    TMP DP  RH WIND       PRES   REMARKS
DFW AIRPORT    PTCLDY    54  48  80 SE6       29.86R
6HR MIN TEMP:  52; 6HR MAX TEMP:  59;

DALLAS LOVE    PTCLDY    54  48  80 SE6       29.88R
6HR MIN TEMP:  54; 6HR MAX TEMP:  60;

FTW MEACHAM    CLEAR     55  46  71 SE7       29.86R
6HR MIN TEMP:  53; 6HR MAX TEMP:  59;

DAL-EXECUTIVE  CLEAR     49  47  93 CALM      29.88R
6HR MIN TEMP:  48; 6HR MAX TEMP:  56;

FTW-ALLIANCE   CLEAR     47  45  93 CALM      29.86S
6HR MIN TEMP:  45; 6HR MAX TEMP:  57;

FTW-NAS-JRB    CLEAR     54  47  77 E6        29.86F
6HR MIN TEMP:  54; 6HR MAX TEMP:  59;

FTW-SPINKS     CLEAR     52  46  82 CALM      29.88S
ARLINGTON      CLEAR     48  45  89 CALM      29.87R
6HR MIN TEMP:  46; 6HR MAX TEMP:  53;

GRAND PRAIRIE  CLEAR     55  46  71 CALM      29.89R
ADDISON        CLEAR     55  48  76 SE6       29.89R
MESQUITE       CLEAR     48  46  93 CALM      29.89S
LANCASTER      CLEAR     46  44  93 CALM      29.90R
6HR MIN TEMP:  44; 6HR MAX TEMP:  50;

$$

TXZ091>094-102>105-117-120-121-131>134-261300-
NORTH CENTRAL TEXAS

CITY           SKY/WX    TMP DP  RH WIND       PRES   REMARKS
SHRMAN/DENISON CLEAR     49  46  88 SE5       29.89R
6HR MIN TEMP:  47; 6HR MAX TEMP:  54;

GAINESVILLE    CLEAR     46  43  89 CALM      29.90R
6HR MIN TEMP:  46; 6HR MAX TEMP:  50;

BOWIE          CLEAR     50  46  86 SE6       29.86R
6HR MIN TEMP:  48; 6HR MAX TEMP:  51;

BRIDGEPORT     CLEAR     46  46 100 CALM      29.87S
6HR MIN TEMP:  43; 6HR MAX TEMP:  56;

DECATUR        CLEAR     51  46  80 SE6       29.87R
6HR MIN TEMP:  49; 6HR MAX TEMP:  56;

DENTON         CLEAR     45  44  97 E3        29.87R
6HR MIN TEMP:  44; 6HR MAX TEMP:  53;

MCKINNEY       CLEAR     49  48  97 CALM      29.89R
6HR MIN TEMP:  46; 6HR MAX TEMP:  52;

BONHAM         CLEAR     45  43  93 E3        29.90R
GREENVILLE     CLEAR     45  43  93 CALM      29.91R
ROCKWALL       CLEAR     54  48  80 SE5       29.89S
6HR MIN TEMP:  53; 6HR MAX TEMP:  58;

TERRELL        CLEAR     48  45  89 NE3       29.90R
6HR MIN TEMP:  47; 6HR MAX TEMP:  52;

WAXAHACHIE     CLEAR     51  49  90 CALM      29.90R
6HR MIN TEMP:  49; 6HR MAX TEMP:  53;

CLEBURNE       CLEAR     52  50  93 SE8       29.88S
GRANBURY       CLEAR     55  49  82 SE6       29.87R
6HR MIN TEMP:  51; 6HR MAX TEMP:  57;

$$

TXZ083>090-098>101-113>116-127>130-139>142-154-155-261300-
WESTERN NORTH TEXAS

CITY           SKY/WX    TMP DP  RH WIND       PRES   REMARKS
WICHITA FALLS  CLEAR     45  42  89 SE7       29.82S
6HR MIN TEMP:  45; 6HR MAX TEMP:  52;

WF-KICKAPOO    CLEAR     48  44  84 E6        29.83S
6HR MIN TEMP:  48; 6HR MAX TEMP:  54;

VERNON         CLEAR     46  39  77 E8        29.80F
6HR MIN TEMP:  45; 6HR MAX TEMP:  74;

ABILENE        CLEAR     53  44  71 SE12      29.79S
6HR MIN TEMP:  53; 6HR MAX TEMP:  58;

ABILENE-DYESS  CLEAR     57  45  63 S12       29.76F
6HR MIN TEMP:  51; 6HR MAX TEMP:  58; 6HR PCP: TRACE;

GRAHAM         CLEAR     55  47  75 SE9       29.81S
6HR MIN TEMP:  54; 6HR MAX TEMP:  56;

BRECKENRIDGE   CLEAR     58  47  66 SE12      29.80F
6HR MIN TEMP:  58; 6HR MAX TEMP:  60;

CISCO          PTCLDY    48  45  87 S9        29.82S
RANGER         CLEAR     54  48  82 SE8       29.84S
MINERAL WELLS  CLEAR     51  46  83 SE12      29.83S
6HR MIN TEMP:  48; 6HR MAX TEMP:  54;

STEPHENVILLE   CLEAR     50  45  83 CALM      29.87S
6HR MIN TEMP:  50; 6HR MAX TEMP:  53;

COMANCHE       PTCLDY    52  49  89 S7        29.84S
6HR MIN TEMP:  50; 6HR MAX TEMP:  56;

BROWNWOOD      CLOUDY    55  48  76 SE9       29.85R
COLEMAN        CLEAR     53  46  76 S7        29.83S
6HR MIN TEMP:  51; 6HR MAX TEMP:  60;

$$

TXZ143>147-156>162-174-175-261300-
CENTRAL TEXAS

CITY           SKY/WX    TMP DP  RH WIND       PRES   REMARKS
WACO           CLOUDY    59  57  93 S13       29.88S
6HR MIN TEMP:  50; 6HR MAX TEMP:  60;

WACO-MCGREGOR  CLOUDY    59  57  93 S7        29.88S FOG
6HR MIN TEMP:  49; 6HR MAX TEMP:  59;

HILLSBORO      CLEAR     56  50  80 SE7       29.88S
6HR MIN TEMP:  56; 6HR MAX TEMP:  60;

CORSICANA      CLEAR     55  50  83 SE8       29.90R
6HR MIN TEMP:  53; 6HR MAX TEMP:  58;

MEXIA          CLOUDY    53  49  88 SE8       29.89R
6HR MIN TEMP:  51; 6HR MAX TEMP:  56;

HEARNE         CLOUDY    60  60 100 CALM      29.90S
6HR MIN TEMP:  53; 6HR MAX TEMP:  60;

CAMERON        CLOUDY    58  58  97 CALM      29.89S FOG
6HR MIN TEMP:  55; 6HR MAX TEMP:  62;

TEMPLE         CLOUDY    61  60  97 S8        29.88R FOG
6HR MIN TEMP:  56; 6HR MAX TEMP:  61;

KILLEEN        CLOUDY    60  59  97 S6        29.86R FOG
6HR MIN TEMP:  55; 6HR MAX TEMP:  60;

KILLEEN-SKYLRK CLOUDY    62  62 100 S8        29.87S FOG
6HR MIN TEMP:  56; 6HR MAX TEMP:  62;

FORT HOOD      CLOUDY    60  60  99 S6        29.84S FOG
6HR MIN TEMP:  54; 6HR MAX TEMP:  60;

GATESVILLE     CLOUDY    57  57 100 CALM      29.89R FOG
HAMILTON       MOCLDY    56  51  85 S10       29.87R
6HR MIN TEMP:  53; 6HR MAX TEMP:  58;

LAMPASAS       CLOUDY    63  62  96 S7        29.85S
6HR MIN TEMP:  52; 6HR MAX TEMP:  63;

$$

TXZ095>097-106>112-122>126-135>138-148>153-164>167-261300-
EAST TEXAS

CITY           SKY/WX    TMP DP  RH WIND       PRES   REMARKS
PARIS          CLEAR     46  43  87 SE7       29.92R
6HR MIN TEMP:  46; 6HR MAX TEMP:  52;

SULPHUR SPRNGS CLEAR     47  47  97 E6        29.93S
6HR MIN TEMP:  47; 6HR MAX TEMP:  53;

MOUNT PLEASANT CLEAR     48  48 100 SE3       29.95R
6HR MIN TEMP:  46; 6HR MAX TEMP:  51;

GILMER         CLEAR     47  47  99 CALM      29.93R
6HR MIN TEMP:  47; 6HR MAX TEMP:  52;

MINEOLA        CLEAR     48  46  93 E3        29.91S FOG
TYLER          PTCLDY    52  50  93 SE7       29.91R
6HR MIN TEMP:  50; 6HR MAX TEMP:  56;

LONGVIEW       CLEAR     50  49  96 CALM      29.92S
6HR MIN TEMP:  49; 6HR MAX TEMP:  54;

MARSHALL       CLEAR     46  44  93 CALM      29.96R
6HR MIN TEMP:  46; 6HR MAX TEMP:  50;

ATHENS         PTCLDY    46  46 100 CALM      29.90R
PALESTINE      CLEAR     56  51  82 SE5       29.92R
JACKSONVILLE   PTCLDY    56  49  79 CALM      29.93R
HENDERSON      CLEAR    N/A N/A N/A CALM      29.93S
CENTER         SUNNY     51  50  96 CALM      29.95S
6HR MIN TEMP:  51; 6HR MAX TEMP:  56;

NACOGDOCHES    CLEAR     39  39 100 CALM      29.92R
6HR MIN TEMP:  39; 6HR MAX TEMP:  50;

LUFKIN         CLEAR     49  47  93 SE5       29.93R
6HR MIN TEMP:  48; 6HR MAX TEMP:  52;

$$

SUPPLEMENTAL OBSERVATIONS (CENTRAL)

CITY           SKY/WX    TMP DP  RH WIND       PRES   REMARKS
DENISON DAM      N/A     45  41  87 E7          N/A
PAT MAYSE LAKE   N/A     48  46  93 E1          N/A
GREENVILLE       N/A     50  45  81 SE3         N/A
CEDAR HILL       N/A     55  46  71 SE6G14      N/A
ATHENS           N/A     52  46  82 E1          N/A
L



USA.gov is the U.S. government's official web portal to all federal, state and local government web resources and services.